Date String (YYYY-MM-DD hh:mm:ss) UTC,Instrument flags,absolute air pressure of the measurement (hPa),sample flow rate (lpm),inlet stack bypass flow (lpm),air temperature of the measurement (°C),ambient temperature measured by the external sensor (°C),aerosol sample conditioner tube jacket temperature (°C),OPC LED temperature (°C),internal box temperature (°C),relative humidity of the measurement (%),span deviation,mass concentration of particles derived from Lorenz-Mie calculation of OPC scattering (μg/m³),mass concentration of particles derived from Lorenz-Mie calculation of OPC scattering (μg/m³),mass concentration of particles derived from Lorenz-Mie calculation of OPC scattering (μg/m³)
DateTimeUTC,F1_M11,P_M11,Q1_M11,Q2_M11,T1_M11,T2_M11,T3_M11,T4_M11,T5_M11,U1_M11,ZSPAN_M11,X0_M11,X2_M11,X1_M11
2024-02-25 16:00:00,SystemResetWarning,0824.5,5.01,000.00,019.5,018.9,000.0,027.6,021.1,08.1,0000.0,0011.83,0003.58,0001.51
2024-02-25 16:01:00,SystemResetWarning,0824.6,5.00,000.00,019.5,018.9,000.0,027.6,021.1,08.3,0000.0,0012.47,0003.58,0001.52
2024-02-25 16:02:00,SystemResetWarning,0824.7,5.00,000.00,019.5,018.9,000.0,027.6,021.2,08.4,0000.0,0012.72,0003.56,0001.52
2024-02-25 16:03:00,SystemResetWarning,0824.7,4.99,000.00,019.5,018.9,000.0,027.6,021.2,08.3,0000.0,0012.70,0003.56,0001.50
2024-02-25 16:04:00,SystemResetWarning,0824.7,5.01,000.00,019.5,019.0,000.0,027.6,021.2,08.0,0000.0,0012.77,0003.58,0001.50
2024-02-25 16:05:00,SystemResetWarning,0824.7,5.01,000.00,019.5,019.0,000.0,027.6,021.2,07.7,0000.0,0012.78,0003.56,0001.50
2024-02-25 16:06:00,SystemResetWarning,0824.7,5.00,000.00,019.6,019.0,000.0,027.6,021.2,07.6,0000.0,0012.46,0003.49,0001.51
2024-02-25 16:07:00,SystemResetWarning,0824.6,4.99,000.00,019.6,019.0,000.0,027.6,021.2,07.9,0000.0,0011.72,0003.47,0001.50
2024-02-25 16:08:00,SystemResetWarning,0824.9,4.99,000.00,019.6,019.0,000.0,027.6,021.2,07.5,0000.0,0011.52,0003.48,0001.49
2024-02-25 16:09:00,SystemResetWarning,0824.9,5.01,000.00,019.6,019.0,000.0,027.6,021.2,06.9,0000.0,0011.52,0003.48,0001.49
2024-02-25 16:10:00,SystemResetWarning,0824.9,5.01,000.00,019.6,019.0,000.0,027.6,021.2,07.1,0000.0,0011.69,0003.53,0001.51
2024-02-25 16:11:00,SystemResetWarning,0824.8,5.01,000.00,019.6,019.0,000.0,027.6,021.2,07.6,0000.0,0011.69,0003.58,0001.52
2024-02-25 16:12:00,SystemResetWarning,0824.7,5.00,000.00,019.6,019.0,000.0,027.7,021.3,07.1,0000.0,0011.96,0003.57,0001.52
2024-02-25 16:13:00,SystemResetWarning,0824.7,5.00,000.00,019.6,019.1,000.0,027.7,021.3,07.3,0000.0,0011.98,0003.58,0001.53
2024-02-25 16:14:00,SystemResetWarning,0824.6,4.99,000.00,019.6,019.1,000.0,027.7,021.3,07.7,0000.0,0011.73,0003.59,0001.53
2024-02-25 16:15:00,SystemResetWarning,0824.7,5.02,000.00,019.6,019.1,000.0,027.7,021.3,07.9,0000.0,0011.91,0003.60,0001.54
2024-02-25 16:16:00,SystemResetWarning,0824.6,5.01,000.00,019.7,019.1,000.0,027.7,021.3,07.5,0000.0,0011.94,0003.62,0001.55
2024-02-25 16:17:00,SystemResetWarning,0824.7,4.99,000.00,019.7,019.1,000.0,027.7,021.3,07.7,0000.0,0012.20,0003.67,0001.55
2024-02-25 16:18:00,SystemResetWarning,0824.6,4.99,000.00,019.7,019.1,000.0,027.7,021.3,07.7,0000.0,0012.29,0003.69,0001.56
2024-02-25 16:19:00,SystemResetWarning,0824.6,4.99,000.00,019.7,019.1,000.0,027.7,021.3,07.5,0000.0,0012.88,0003.72,0001.57
2024-02-25 16:20:00,SystemResetWarning,0824.6,5.00,000.00,019.7,019.1,000.0,027.7,021.3,07.5,0000.0,0013.34,0003.74,0001.56
2024-02-25 16:21:00,SystemResetWarning,0824.7,5.00,000.00,019.7,019.1,000.0,027.7,021.3,07.7,0000.0,0013.68,0003.74,0001.56
2024-02-25 16:22:00,SystemResetWarning,0824.7,5.00,000.00,019.7,019.1,000.0,027.7,021.3,07.8,0000.0,0013.54,0003.77,0001.57
2024-02-25 16:23:00,SystemResetWarning,0824.7,5.00,000.00,019.7,019.1,000.0,027.7,021.3,07.9,0000.0,0012.92,0003.78,0001.58
2024-02-25 16:24:00,SystemResetWarning,0824.7,5.00,000.00,019.7,019.1,000.0,027.7,021.4,07.8,0000.0,0012.37,0003.77,0001.59
2024-02-25 16:25:00,SystemResetWarning,0824.7,5.00,000.00,019.7,019.1,000.0,027.7,021.4,07.8,0000.0,0012.38,0003.71,0001.59
2024-02-25 16:26:00,SystemResetWarning,0824.7,5.01,000.00,019.7,019.1,000.0,027.8,021.4,07.8,0000.0,0012.00,0003.66,0001.58
2024-02-25 16:27:00,SystemResetWarning,0824.5,5.00,000.00,019.7,019.2,000.0,027.8,021.4,07.4,0000.0,0011.80,0003.65,0001.57
2024-02-25 16:28:00,SystemResetWarning,0824.4,5.01,000.00,019.7,019.2,000.0,027.8,021.4,07.5,0000.0,0011.32,0003.62,0001.54
2024-02-25 16:29:00,SystemResetWarning,0824.5,5.00,000.00,019.7,019.2,000.0,027.8,021.4,07.5,0000.0,0011.28,0003.59,0001.53
2024-02-25 16:30:00,SystemResetWarning,0824.5,5.00,000.00,019.7,019.2,000.0,027.8,021.4,07.6,0000.0,0010.37,0003.56,0001.54
2024-02-25 16:31:00,SystemResetWarning,0824.5,5.00,000.00,019.8,019.2,000.0,027.8,021.4,07.3,0000.0,0009.85,0003.56,0001.55
2024-02-25 16:32:00,SystemResetWarning,0824.4,4.99,000.00,019.8,019.2,000.0,027.8,021.4,07.5,0000.0,0009.74,0003.54,0001.54
2024-02-25 16:33:00,SystemResetWarning,0824.3,4.99,000.00,019.8,019.2,000.0,027.8,021.4,07.6,0000.0,0009.80,0003.49,0001.52
2024-02-25 16:34:00,SystemResetWarning,0824.2,5.01,000.00,019.8,019.2,000.0,027.8,021.4,07.5,0000.0,0009.80,0003.47,0001.50
2024-02-25 16:35:00,SystemResetWarning,0824.3,5.01,000.00,019.8,019.2,000.0,027.9,021.4,06.8,0000.0,0010.26,0003.42,0001.48
2024-02-25 16:36:00,SystemResetWarning,0824.3,5.00,000.00,019.8,019.2,000.0,027.9,021.4,07.2,0000.0,0010.76,0003.41,0001.47
2024-02-25 16:37:00,SystemResetWarning,0824.4,4.99,000.00,019.8,019.2,000.0,027.9,021.4,07.2,0000.0,0010.88,0003.42,0001.47
2024-02-25 16:38:00,SystemResetWarning,0824.6,4.99,000.00,019.8,019.2,000.0,027.9,021.4,07.5,0000.0,0010.89,0003.42,0001.47
2024-02-25 16:39:00,SystemResetWarning,0824.5,5.00,000.00,019.8,019.2,000.0,027.9,021.5,07.5,0000.0,0011.13,0003.41,0001.47
2024-02-25 16:40:00,SystemResetWarning,0824.5,5.01,000.00,019.8,019.2,000.0,027.9,021.5,07.5,0000.0,0011.56,0003.44,0001.50
2024-02-25 16:41:00,SystemResetWarning,0824.4,5.00,000.00,019.8,019.2,000.0,027.9,021.5,07.5,0000.0,0011.98,0003.47,0001.48
2024-02-25 16:42:00,SystemResetWarning,0824.6,5.00,000.00,019.8,019.2,000.0,027.9,021.5,07.6,0000.0,0011.98,0003.46,0001.47
2024-02-25 16:43:00,SystemResetWarning,0824.6,5.01,000.00,019.8,019.2,000.0,027.9,021.5,07.5,0000.0,0011.83,0003.46,0001.47
2024-02-25 16:44:00,SystemResetWarning,0824.4,4.99,000.00,019.8,019.2,000.0,027.9,021.5,07.5,0000.0,0012.73,0003.44,0001.48
2024-02-25 16:45:00,SystemResetWarning,0824.3,4.99,000.00,019.8,019.2,000.0,027.9,021.5,07.5,0000.0,0013.66,0003.47,0001.48
2024-02-25 16:46:00,SystemResetWarning,0824.6,5.01,000.00,019.9,019.2,000.0,027.9,021.5,07.7,0000.0,0013.76,0003.51,0001.49
2024-02-25 16:47:00,SystemResetWarning,0824.6,5.01,000.00,019.9,019.2,000.0,028.0,021.5,07.8,0000.0,0013.89,0003.59,0001.49
2024-02-25 16:48:00,SystemResetWarning,0824.7,5.00,000.00,019.9,019.2,000.0,028.0,021.5,07.8,0000.0,0014.20,0003.66,0001.49
2024-02-25 16:49:00,SystemResetWarning,0824.7,4.99,000.00,019.9,019.2,000.0,028.0,021.5,07.7,0000.0,0014.33,0003.69,0001.48
2024-02-25 16:50:00,SystemResetWarning,0824.8,4.99,000.00,019.9,019.2,000.0,028.0,021.5,07.6,0000.0,0014.08,0003.70,0001.49
2024-02-25 16:51:00,SystemResetWarning,0824.6,5.00,000.00,019.9,019.3,000.0,028.0,021.5,07.8,0000.0,0013.69,0003.73,0001.48
2024-02-25 16:52:00,SystemResetWarning,0824.7,5.01,000.00,019.9,019.3,000.0,028.0,021.5,07.8,0000.0,0013.90,0003.68,0001.48
2024-02-25 16:53:00,SystemResetWarning,0824.8,5.01,000.00,019.9,019.3,000.0,028.0,021.6,07.7,0000.0,0014.60,0003.66,0001.48
2024-02-25 16:54:00,SystemResetWarning,0824.8,4.99,000.00,019.9,019.3,000.0,028.0,021.6,07.8,0000.0,0015.71,0003.65,0001.47
2024-02-25 16:55:00,SystemResetWarning,0824.7,4.99,000.00,019.9,019.3,000.0,028.0,021.6,07.7,0000.0,0015.56,0003.72,0001.47
2024-02-25 16:56:00,SystemResetWarning,0824.7,5.00,000.00,019.9,019.3,000.0,028.0,021.6,07.6,0000.0,0015.26,0003.74,0001.48
2024-02-25 16:57:00,SystemResetWarning,0824.7,5.01,000.00,019.9,019.3,000.0,028.0,021.6,07.6,0000.0,0014.18,0003.73,0001.47
2024-02-25 16:58:00,SystemResetWarning,0824.7,5.01,000.00,019.9,019.3,000.0,028.0,021.6,07.3,0000.0,0013.76,0003.65,0001.46
2024-02-25 16:59:00,SystemResetWarning,0824.7,5.00,000.00,019.9,019.3,000.0,028.0,021.6,07.3,0000.0,0013.77,0003.60,0001.46
